TimeCDT,TemperatureF,Dew PointF,Humidity,Sea Level PressureIn,VisibilityMPH,Wind Direction,Wind SpeedMPH,Gust SpeedMPH,PrecipitationIn,Events,Conditions,WindDirDegrees,DateUTC
12:53 AM,66.0,53.1,63,29.74,10.0,SSE,11.5,19.6,N/A,,Mostly Cloudy,160,2013-09-24 05:53:00
1:53 AM,66.0,53.1,63,29.74,10.0,South,9.2,-,N/A,,Overcast,170,2013-09-24 06:53:00
2:53 AM,64.0,53.1,67,29.73,10.0,SSE,8.1,-,N/A,,Mostly Cloudy,160,2013-09-24 07:53:00
3:53 AM,63.0,54.0,72,29.73,10.0,South,5.8,-,N/A,,Overcast,170,2013-09-24 08:53:00
4:53 AM,62.1,54.0,75,29.73,10.0,SSW,9.2,-,N/A,,Scattered Clouds,200,2013-09-24 09:53:00
5:53 AM,60.1,53.1,78,29.74,10.0,SW,8.1,-,N/A,,Clear,220,2013-09-24 10:53:00
6:53 AM,57.9,52.0,81,29.75,10.0,SW,6.9,-,N/A,,Clear,220,2013-09-24 11:53:00
7:53 AM,57.9,53.1,84,29.77,10.0,SSW,6.9,-,N/A,,Partly Cloudy,210,2013-09-24 12:53:00
8:07 AM,59.0,53.6,82,29.78,10.0,SSW,6.9,-,N/A,,Mostly Cloudy,210,2013-09-24 13:07:00
8:53 AM,61.0,54.0,78,29.77,10.0,SW,5.8,-,N/A,,Overcast,220,2013-09-24 13:53:00
9:13 AM,64.4,55.4,73,29.79,10.0,WSW,9.2,-,N/A,,Mostly Cloudy,250,2013-09-24 14:13:00
9:53 AM,64.9,55.0,70,29.78,10.0,West,15.0,-,N/A,,Overcast,270,2013-09-24 14:53:00
10:25 AM,66.2,55.4,68,29.81,10.0,WNW,11.5,-,N/A,,Mostly Cloudy,290,2013-09-24 15:25:00
10:53 AM,66.9,55.9,68,29.80,10.0,West,17.3,-,N/A,,Overcast,270,2013-09-24 15:53:00
11:53 AM,68.0,55.9,65,29.81,10.0,WNW,12.7,-,N/A,,Overcast,290,2013-09-24 16:53:00
12:22 PM,69.8,57.2,64,29.83,10.0,NW,13.8,21.9,N/A,,Overcast,310,2013-09-24 17:22:00
12:53 PM,66.9,55.0,66,29.82,10.0,WNW,10.4,-,N/A,,Overcast,300,2013-09-24 17:53:00
1:03 PM,66.2,55.4,68,29.84,10.0,WNW,11.5,-,N/A,,Overcast,290,2013-09-24 18:03:00
1:29 PM,66.2,55.4,68,29.84,10.0,WNW,9.2,-,N/A,,Overcast,300,2013-09-24 18:29:00
1:38 PM,68.0,55.4,64,29.84,10.0,WNW,11.5,-,N/A,,Overcast,300,2013-09-24 18:38:00
1:45 PM,69.8,55.4,60,29.84,10.0,NW,10.4,-,N/A,,Overcast,320,2013-09-24 18:45:00
1:53 PM,68.0,57.0,68,29.82,10.0,NW,10.4,17.3,N/A,,Overcast,320,2013-09-24 18:53:00
2:07 PM,68.0,55.4,64,29.84,10.0,NNW,13.8,-,N/A,,Overcast,330,2013-09-24 19:07:00
2:53 PM,69.1,55.9,63,29.83,10.0,NW,12.7,-,N/A,,Overcast,320,2013-09-24 19:53:00
3:53 PM,70.0,55.9,61,29.83,10.0,NNW,8.1,-,N/A,,Overcast,340,2013-09-24 20:53:00
4:53 PM,70.0,57.0,63,29.83,10.0,North,4.6,-,N/A,,Overcast,10,2013-09-24 21:53:00
5:53 PM,69.1,57.9,68,29.84,10.0,Calm,Calm,-,N/A,,Overcast,0,2013-09-24 22:53:00
6:53 PM,66.9,59.0,76,29.85,10.0,Calm,Calm,-,N/A,,Scattered Clouds,0,2013-09-24 23:53:00
7:53 PM,64.9,59.0,81,29.86,10.0,Calm,Calm,-,N/A,,Overcast,0,2013-09-25 00:53:00
8:53 PM,64.0,57.9,80,29.86,10.0,NW,6.9,-,N/A,,Partly Cloudy,310,2013-09-25 01:53:00
9:53 PM,62.1,55.9,80,29.87,10.0,NNW,10.4,-,N/A,,Clear,330,2013-09-25 02:53:00
10:53 PM,61.0,55.9,83,29.87,10.0,NW,5.8,-,N/A,,Clear,320,2013-09-25 03:53:00
11:53 PM,59.0,55.0,87,29.87,10.0,NW,8.1,-,N/A,,Clear,320,2013-09-25 04:53:00